軌道要素
Epoch 2005 Sept. 27.0 TT = JDT 2453640.5
T 2005 Sept. 28.24204 TT MPC
q 1.7543503 (2000.0) P Q
n 0.10466549 Peri. 50.89975 +0.47185530 -0.87963182
a 4.4593035 Node 11.41425 +0.68598795 +0.32352267
e 0.6065865 Incl. 17.64990 +0.55387102 +0.34868458
P 9.42
From 194 observations 2005 Aug. 31-2014 Aug. 23, mean residual 0".5.
|